This demonstration page uses our WeatherBlox Daily Observations layout. Learn more.

39.92423, -83.80882

Hourly Observations for June 19, 2019

Temp ( °F °C ) Dew Point ( °F °C ) Humidity (%) Winds ( mph kmh ) Pressure ( in mb ) Visibility ( mi km ) Precip ( " mm )
12:56 am 00:56 Mostly Clear with Mist and Fog 68 20 68 20 100 100 Calm 29.86 1011 3 4.82802 0 0
1:48 am 01:48 Cloudy with Mist and Fog 68 20 68 20 100 100 SE 3 6 29.83 1010 5 8.0467 0 0
1:56 am 01:56 Cloudy with Mist and Fog 68 20 68 20 100 100 ESE 5 7 29.85 1011 5 8.0467 0 0
2:25 am 02:25 Mostly Cloudy with Mist and Fog 66 19 66 19 100 100 Calm 29.83 1010 2 3.21868 0 0
2:30 am 02:30 Partly Cloudy with Mist and Fog 66 19 66 19 100 100 NE 5 7 29.83 1010 1.5 2.41401 0 0
2:41 am 02:41 Partly Cloudy with Mist and Fog 66 19 66 19 100 100 Calm 29.83 1010 3 4.82802 0 0
2:56 am 02:56 Mostly Clear with Mist and Fog 68 20 68 20 100 100 Calm 29.83 1010 4 6.43736 0 0
3:12 am 03:12 Mostly Cloudy with Mist and Fog 68 20 68 20 100 100 Calm 29.82 1010 2.5 4.02335 0 0
3:20 am 03:20 Mostly Cloudy with Mist and Fog 66 19 66 19 100 100 ENE 3 6 29.82 1010 1.25 2.011675 0 0
3:23 am 03:23 Mostly Cloudy with Mist and Fog 66 19 66 19 100 100 ENE 3 6 29.82 1010 0.75 1.207005 0 0
3:27 am 03:27 Mostly Cloudy with Fog 66 19 66 19 100 100 E 3 6 29.82 1010 0.5 0.80467 0 0
3:39 am 03:39 Mostly Cloudy with Mist and Fog 66 19 66 19 100 100 E 3 6 29.82 1010 1 1.60934 0 0
3:46 am 03:46 Cloudy with Mist and Fog 66 19 66 19 100 100 ENE 5 7 29.82 1010 2 3.21868 0 0
3:53 am 03:53 Cloudy with Mist and Fog 66 19 66 19 100 100 Calm 29.82 1010 3 4.82802 0 0
3:54 am 03:54 Cloudy with Mist and Fog 67 19.4 67 19.4 100 100 Calm 29.83 1010 3 4.82802 0 0
4:16 am 04:16 Cloudy with Mist and Fog 66 19 66 19 100 100 Calm 29.81 1009 2.5 4.02335 0 0
4:24 am 04:24 Cloudy with Mist and Fog 66 19 66 19 100 100 Calm 29.81 1009 4 6.43736 0 0
5:12 am 05:12 Cloudy with Mist and Fog 66 19 66 19 100 100 NNE 3 6 29.81 1009 3 4.82802 0 0
5:21 am 05:21 Cloudy with Mist and Fog 68 20 68 20 100 100 Calm 29.8 1009 4 6.43736 0 0
5:52 am 05:52 Cloudy with Mist and Fog 66 19 66 19 100 100 Calm 29.81 1009 2.5 4.02335 0 0
5:56 am 05:56 Cloudy with Mist and Fog 67 19.4 67 19.4 100 100 NNE 3 6 29.81 1010 2.5 4.02335 0 0
6:08 am 06:08 Cloudy with Mist and Fog 66 19 66 19 100 100 Calm 29.81 1009 2.5 4.02335 0 0
6:17 am 06:17 Cloudy with Mist and Fog 66 19 66 19 100 100 SE 3 6 29.81 1009 1.5 2.41401 0 0
6:56 am 06:56 Cloudy with Mist and Fog 68 20 68 20 100 100 SE 3 6 29.81 1010 2 3.21868 0 0
7:10 am 07:10 Cloudy with Mist and Fog 68 20 68 20 100 100 Calm 29.8 1009 3 4.82802 0 0
7:29 am 07:29 Cloudy with Mist and Fog 68 20 68 20 100 100 Calm 29.8 1009 4 6.43736 0 0
7:51 am 07:51 Cloudy with Mist and Fog 68 20 68 20 100 100 Calm 29.8 1009 4 6.43736 0 0
7:56 am 07:56 Cloudy with Mist and Fog 68 20 68 20 100 100 E 3 6 29.82 1010 4 6.43736 0 0
8:56 am 08:56 Cloudy with Mist and Fog 70 21.1 70 21.1 100 100 Calm 29.81 1010 5 8.0467 0 0
9:30 am 09:30 Cloudy 72 22 72 22 100 100 SSE 6 9 29.78 1009 9 14.48406 0 0
9:56 am 09:56 Cloudy 72 22.2 71 21.7 97 97 ESE 5 7 29.8 1009 10 16.0934 0 0
10:46 am 10:46 Partly Cloudy 75 24 72 22 89 89 E 7 11 29.76 1008 10 16.0934 0 0
10:56 am 10:56 Mostly Sunny 76 24.4 70 21.1 82 82 E 6 9 29.78 1009 10 16.0934 0 0
11:40 am 11:40 Mostly Cloudy 77 25 72 22 83 83 VRB 3 6 29.75 1008 10 16.0934 0 0
11:48 am 11:48 Mostly Sunny 77 25 70 21 79 79 SE 6 9 29.74 1007 10 16.0934 0 0
11:56 am 11:56 Mostly Sunny 79 26.1 71 21.7 77 77 SSE 6 9 29.78 1008 10 16.0934 0 0
12:22 pm 12:22 Mostly Cloudy 79 26 70 21 74 74 VRB 6 9 29.74 1007 10 16.0934 0 0
12:45 pm 12:45 Cloudy 79 26 72 22 79 79 SSW 8 13 29.74 1007 10 16.0934 0 0
12:56 pm 12:56 Cloudy 78 25.6 70 21.1 76 76 SW 3 6 29.77 1008 10 16.0934 0 0
1:12 pm 13:12 Cloudy with Nearby Thunderstorms 77 25 70 21 79 79 NNW 6 9 29.73 1007 10 16.0934 0 0
1:21 pm 13:21 Cloudy 79 26 70 21 74 74 N 7 11 29.72 1006 10 16.0934 0 0
1:35 pm 13:35 Mostly Cloudy 79 26 70 21 74 74 WNW 5 7 29.72 1006 10 16.0934 0 0
1:56 pm 13:56 Mostly Cloudy 79 26.1 70 21.1 74 74 Calm 29.74 1007 10 16.0934 0 0
2:56 pm 14:56 Cloudy 81 27.2 71 21.7 72 72 NNW 3 6 29.71 1006 10 16.0934 0 0
3:56 pm 15:56 Cloudy 78 25.6 72 22.2 82 82 NE 9 15 29.69 1005 10 16.0934 0 0
4:56 pm 16:56 Mostly Cloudy 80 26.7 70 21.1 71 71 VRB 3 6 29.66 1004 8 12.87472 0 0
5:56 pm 17:56 Sunny 80 26.7 71 21.7 74 74 SW 8 13 29.65 1004 10 16.0934 0 0
6:23 pm 18:23 Mostly Cloudy with Nearby Thunderstorms 75 24 68 20 78 78 SSW 15 24 29.63 1003 10 16.0934 0 0.0254
6:56 pm 18:56 Cloudy with Nearby Thunderstorms 70 21.1 70 21.1 100 100 WSW 6 9 29.67 1005 10 16.0934 0.03 0.762
7:07 pm 19:07 Cloudy with Light Rain 70 21 70 21 100 100 WSW 5 7 29.65 1004 10 16.0934 0.01 0.254
7:56 pm 19:56 Mostly Cloudy with Light Rain 71 21.7 70 21.1 96 96 WSW 9 15 29.68 1005 10 16.0934 0.01 0.254
8:34 pm 20:34 Cloudy with Rain 70 21 70 21 100 100 W 9 15 29.67 1005 8 12.87472 0.05 1.27
8:56 pm 20:56 Mostly Cloudy with Light Rain 70 21.1 70 21.1 100 100 WNW 7 11 29.67 1005 10 16.0934 0.08 2.032
9:11 pm 21:11 Partly Cloudy 70 21 70 21 100 100 W 7 11 29.66 1004 10 16.0934 0 0.0254
9:56 pm 21:56 Mostly Clear 69 20.6 69 20.6 100 100 WSW 3 6 29.66 1004 10 16.0934 0 0.0254
10:56 pm 22:56 Mostly Clear 68 20 68 20 100 100 E 3 6 29.65 1004 10 16.0934 0 0
11:11 pm 23:11 Partly Cloudy 68 20 68 20 100 100 E 3 6 29.64 1004 9 14.48406 0 0
11:22 pm 23:22 Mostly Cloudy 68 20 68 20 100 100 ESE 8 13 29.64 1004 7 11.26538 0 0
11:56 pm 23:56 Partly Cloudy 68 20 68 20 100 100 SSE 7 11 29.64 1004 10 16.0934 0 0

Powered by AerisWeather